This is the latest recevied weather packets stored in our database for station/object IZ3MEZ-13. If no packets are shown the sender has not sent any weather packets the latest 10 day(s).
| Time | Temp. | Humidity | Pressure | Rain* | Wind** | Luminosity | Snow |
|---|---|---|---|---|---|---|---|
| 1777901120 | 30° C | 45% | 1017.4 hPa | 0 mm | - | 355 W/m² | - |
| 1777898117 | 28.33° C | 47% | 1017.6 hPa | 0 mm | - | 705 W/m² | - |
| 1777897516 | 28.33° C | 46% | 1017.7 hPa | 0 mm | - | 711 W/m² | - |
| 1777896923 | 28.33° C | 47% | 1017.8 hPa | 0 mm | - | 479 W/m² | - |
| 1777896317 | 28.33° C | 45% | 1017.9 hPa | 0 mm | - | 634 W/m² | - |
| 1777895720 | 27.78° C | 43% | 1017.9 hPa | 0 mm | - | 738 W/m² | - |
| 1777895129 | 27.78° C | 44% | 1018 hPa | 0 mm | - | 628 W/m² | - |
| 1777894520 | 27.78° C | 45% | 1018.2 hPa | 0 mm | - | 682 W/m² | - |
| 1777893920 | 27.78° C | 44% | 1018.2 hPa | 0 mm | - | 594 W/m² | - |
| 1777893323 | 28.89° C | 43% | 1018.3 hPa | 0 mm | - | 723 W/m² | - |
| 1777892715 | 28.33° C | 43% | 1018.5 hPa | 0 mm | - | 720 W/m² | - |
| 1777892120 | 28.33° C | 45% | 1018.7 hPa | 0 mm | - | 759 W/m² | - |
| 1777890321 | 26.67° C | 49% | 1018.7 hPa | 0 mm | - | 491 W/m² | - |
| 1777889718 | 26.11° C | 53% | 1018.8 hPa | 0 mm | - | 656 W/m² | - |
| 1777889124 | 23.89° C | 56% | 1018.8 hPa | 0 mm | - | 660 W/m² | - |
| 1777888521 | 23.33° C | 55% | 1018.9 hPa | 0 mm | - | 627 W/m² | - |
| 1777887920 | 22.78° C | 56% | 1018.9 hPa | 0 mm | - | 638 W/m² | - |
| 1777887319 | 22.78° C | 59% | 1018.9 hPa | 0 mm | - | 652 W/m² | - |
| 1777886729 | 22.22° C | 59% | 1019 hPa | 0 mm | - | 646 W/m² | - |
| 1777886122 | 22.22° C | 60% | 1018.9 hPa | 0 mm | - | 397 W/m² | - |
| 1777885523 | 21.67° C | 62% | 1019.1 hPa | 0 mm | - | 95 W/m² | - |
| 1777884918 | 21.67° C | 63% | 1019.1 hPa | 0 mm | - | 86 W/m² | - |
| 1777884316 | 21.11° C | 64% | 1019.1 hPa | 0 mm | - | 87 W/m² | - |
| 1777883721 | 21.11° C | 65% | 1019.1 hPa | 0 mm | - | 100 W/m² | - |
| 1777883118 | 21.11° C | 66% | 1019 hPa | 0 mm | - | 164 W/m² | - |
* Rain latest hour (hover to see other rain measurements)
** Current wind speed in m/s (hover to see current wind gust speed)